Location: *
(43.0833°N, 13.0500°E)
Time: 09:26:31
(UTC+00:00)

Cosmos 1862 - Pass Details

Date: 15 November 2019
Orbit: 538 x 557 km, 82.5° (Epoch: 06 December)

Event Time Altitude Azimuth Distance (km) Brightness Sun altitude
Rises 17:36:44 0° 348° (NNW) 2,704 6.9 -20.5°
Reaches altitude 10° 17:38:55 10° 345° (NNW) 1,809 6.0 -20.9°
Maximum altitude 17:42:50 60° 265° (W) 622 3.8 -21.6°
Drops below altitude 10° 17:46:44 10° 185° (S) 1,802 6.0 -22.3°
Sets 17:48:54 0° 182° (S) 2,693 6.9 -22.7°
